Princeton, MN

9:24 AM CST on November 21, 2019 (GMT -0600)
Princeton Municipal

Weather History for KPNM - August, 2019

Change the Weather History Date:

Friday, August 23, 2019

  Actual Average Record
Temperature  
Mean Temperature 62 °F -  
Max Temperature 77 °F 76 °F 87 °F (2013)
Min Temperature 48 °F 55 °F 33 °F (2004)
Degree Days  
Heating Degree Days 2    
Growing Degree Days 12 (Base 50)    
Moisture  
Dew Point 55 °F    
Average Humidity 76    
Maximum Humidity 100    
Minimum Humidity 50    
Precipitation  
Precipitation 0.00 in - - ()
Sea Level Pressure  
Sea Level Pressure 30.20 in    
Wind  
Wind Speed 3 mph (East)    
Max Wind Speed 10 mph    
Max Gust Speed -    
Visibility 10 miles    
Events      
Averages and records for this station are not official NWS values.
T = Trace of Precipitation, MM = Missing Value Source: NWS Daily Summary

Daily Weather History Graph

Daily Weather History Graph

Search for Another Location

Airport or City:

Astronomy

Aug. 23, 2019 Rise Set
Actual Time 6:24 AM CDT 8:08 PM CDT
Civil Twilight 5:53 AM CDT 8:40 PM CDT
Nautical Twilight 5:14 AM CDT 9:18 PM CDT
Astronomical Twilight 4:32 AM CDT 9:59 PM CDT
Moon No Moon Rise 2:25 PM CDT (8/23)
Length of Visible Light 14h 47m
Length of Day
13h 44m
Waning Gibbous, 49% of the Moon is Illuminated
Aug 23
Waning Gibbous
Aug 30
New
Sep 5
First Quarter
Sep 13
Full
Sep 21
Last Quarter

Hourly Weather History & Observations

Time (CDT) Temp. Dew Point Humidity Pressure Visibility Wind Dir Wind Speed Gust Speed Precip Events Conditions
12:15 AM 57.2 °F 51.8 °F 82% 30.16 in 10.0 mi Calm Calm - N/A   Clear
12:38 AM 55.4 °F 51.8 °F 88% 30.17 in 10.0 mi Calm Calm - N/A   Clear
12:56 AM 53.6 °F 51.8 °F 94% 30.17 in 10.0 mi Calm Calm - N/A   Clear
1:15 AM 53.6 °F 51.8 °F 94% 30.17 in 10.0 mi Calm Calm - N/A   Clear
1:16 AM 53.6 °F 51.8 °F 94% 30.17 in 10.0 mi Calm Calm - N/A   Clear
1:35 AM 55.4 °F 51.8 °F 88% 30.17 in 10.0 mi Calm Calm - N/A   Clear
1:36 AM 55.4 °F 51.8 °F 88% 30.17 in 10.0 mi Calm Calm - N/A   Clear
1:58 AM 53.6 °F 51.8 °F 94% 30.16 in 10.0 mi Calm Calm - N/A   Clear
2:17 AM 53.6 °F 51.8 °F 94% 30.17 in 10.0 mi Calm Calm - N/A   Clear
2:35 AM 53.6 °F 51.8 °F 94% 30.17 in 10.0 mi Calm Calm - N/A   Clear
2:55 AM 53.6 °F 51.8 °F 94% 30.17 in 10.0 mi Calm Calm - N/A   Clear
2:56 AM 53.6 °F 51.8 °F 94% 30.17 in 10.0 mi Calm Calm - N/A   Clear
3:15 AM 51.8 °F 50.0 °F 94% 30.17 in 10.0 mi Calm Calm - N/A   Clear
3:38 AM 51.8 °F 50.0 °F 94% 30.18 in 10.0 mi Calm Calm - N/A   Clear
3:56 AM 51.8 °F 48.2 °F 88% 30.18 in 10.0 mi Calm Calm - N/A   Clear
4:15 AM 51.8 °F 48.2 °F 88% 30.18 in 10.0 mi Calm Calm - N/A   Clear
4:16 AM 51.8 °F 48.2 °F 88% 30.18 in 10.0 mi Calm Calm - N/A   Clear
4:35 AM 51.8 °F 50.0 °F 94% 30.19 in 10.0 mi Calm Calm - N/A   Clear
4:59 AM 51.8 °F 50.0 °F 94% 30.19 in 10.0 mi Calm Calm - N/A   Clear
5:17 AM 50.0 °F 48.2 °F 94% 30.19 in 10.0 mi Calm Calm - N/A   Clear
5:35 AM 50.0 °F 48.2 °F 94% 30.20 in 10.0 mi Calm Calm - N/A   Clear
5:36 AM 50.0 °F 48.2 °F 94% 30.20 in 10.0 mi Calm Calm - N/A   Clear
5:55 AM 50.0 °F 48.2 °F 94% 30.21 in 10.0 mi Calm Calm - N/A   Clear
5:56 AM 48.2 °F 48.2 °F 100% 30.21 in 10.0 mi Calm Calm - N/A   Clear
6:15 AM 48.2 °F 48.2 °F 100% 30.21 in 7.0 mi Calm Calm - N/A   Clear
6:20 AM 48.2 °F 48.2 °F 100% 30.21 in 10.0 mi Calm Calm - N/A   Clear
6:38 AM 50.0 °F 48.2 °F 94% 30.21 in 10.0 mi Calm Calm - N/A   Clear
6:56 AM 51.8 °F 50.0 °F 94% 30.22 in 10.0 mi Calm Calm - N/A   Clear
7:16 AM 51.8 °F 51.8 °F 100% 30.22 in 10.0 mi Calm Calm - N/A   Clear
7:35 AM 53.6 °F 51.8 °F 94% 30.23 in 10.0 mi NE 3.5 mph - N/A   Clear
7:36 AM 53.6 °F 51.8 °F 94% 30.23 in 10.0 mi NE 3.5 mph - N/A   Clear
7:58 AM 55.4 °F 51.8 °F 88% 30.23 in 10.0 mi ENE 5.8 mph - N/A   Clear
8:17 AM 55.4 °F 53.6 °F 94% 30.23 in 10.0 mi ENE 4.6 mph - N/A   Clear
8:35 AM 57.2 °F 53.6 °F 88% 30.23 in 10.0 mi East 3.5 mph - N/A   Clear
8:55 AM 59.0 °F 55.4 °F 88% 30.22 in 10.0 mi East 5.8 mph - N/A   Scattered Clouds
9:15 AM 62.6 °F 55.4 °F 77% 30.22 in 10.0 mi East 6.9 mph - N/A   Scattered Clouds
9:20 AM 62.6 °F 55.4 °F 77% 30.22 in 10.0 mi East 5.8 mph - N/A   Scattered Clouds
9:38 AM 64.4 °F 55.4 °F 73% 30.23 in 10.0 mi East 6.9 mph - N/A   Clear
9:56 AM 66.2 °F 57.2 °F 73% 30.23 in 10.0 mi East 6.9 mph - N/A   Clear
10:15 AM 66.2 °F 57.2 °F 73% 30.23 in 10.0 mi East 4.6 mph - N/A   Clear
10:35 AM 68.0 °F 57.2 °F 68% 30.23 in 10.0 mi ESE 6.9 mph - N/A   Clear
10:59 AM 69.8 °F 57.2 °F 64% 30.23 in 10.0 mi ESE 8.1 mph - N/A   Clear
11:17 AM 69.8 °F 59.0 °F 68% 30.23 in 10.0 mi East 8.1 mph - N/A   Scattered Clouds
11:35 AM 71.6 °F 59.0 °F 64% 30.23 in 10.0 mi East 10.4 mph - N/A   Scattered Clouds
11:36 AM 71.6 °F 59.0 °F 64% 30.23 in 10.0 mi East 9.2 mph - N/A   Scattered Clouds
11:55 AM 71.6 °F 59.0 °F 64% 30.23 in 10.0 mi East 9.2 mph - N/A   Scattered Clouds
12:15 PM 73.4 °F 59.0 °F 61% 30.22 in 10.0 mi East 8.1 mph - N/A   Scattered Clouds
12:38 PM 73.4 °F 57.2 °F 57% 30.22 in 10.0 mi East 9.2 mph - N/A   Clear
12:56 PM 73.4 °F 57.2 °F 57% 30.22 in 10.0 mi East 8.1 mph - N/A   Scattered Clouds
1:15 PM 73.4 °F 57.2 °F 57% 30.22 in 10.0 mi ENE 10.4 mph - N/A   Scattered Clouds
1:16 PM 73.4 °F 57.2 °F 57% 30.21 in 10.0 mi ENE 9.2 mph - N/A   Scattered Clouds
1:35 PM 73.4 °F 55.4 °F 53% 30.21 in 10.0 mi SE 4.6 mph - N/A   Mostly Cloudy
1:36 PM 73.4 °F 55.4 °F 53% 30.21 in 10.0 mi SE 6.9 mph - N/A   Mostly Cloudy
2:17 PM 75.2 °F 57.2 °F 53% 30.21 in 10.0 mi East 6.9 mph - N/A   Scattered Clouds
2:35 PM 73.4 °F 57.2 °F 57% 30.21 in 10.0 mi ESE 8.1 mph - N/A   Mostly Cloudy
2:55 PM 73.4 °F 55.4 °F 53% 30.21 in 10.0 mi ESE 9.2 mph - N/A   Mostly Cloudy
2:56 PM 73.4 °F 55.4 °F 53% 30.21 in 10.0 mi ESE 8.1 mph - N/A   Mostly Cloudy
3:15 PM 73.4 °F 55.4 °F 53% 30.20 in 10.0 mi SE 4.6 mph - N/A   Mostly Cloudy
3:20 PM 73.4 °F 55.4 °F 53% 30.20 in 10.0 mi ESE 6.9 mph - N/A   Mostly Cloudy
3:38 PM 77.0 °F 57.2 °F 50% 30.20 in 10.0 mi East 6.9 mph - N/A   Scattered Clouds
3:56 PM 73.4 °F 55.4 °F 53% 30.19 in 10.0 mi ESE 3.5 mph - N/A   Scattered Clouds
4:15 PM 73.4 °F 55.4 °F 53% 30.20 in 10.0 mi East 5.8 mph - N/A   Scattered Clouds
4:35 PM 73.4 °F 57.2 °F 57% 30.20 in 10.0 mi East 5.8 mph - N/A   Mostly Cloudy
4:36 PM 73.4 °F 57.2 °F 57% 30.20 in 10.0 mi East 5.8 mph - N/A   Scattered Clouds
4:59 PM 75.2 °F 57.2 °F 53% 30.19 in 10.0 mi ESE 9.2 mph - N/A   Mostly Cloudy
5:17 PM 77.0 °F 57.2 °F 50% 30.19 in 10.0 mi East 8.1 mph - N/A   Mostly Cloudy
5:35 PM 75.2 °F 57.2 °F 53% 30.19 in 10.0 mi ESE 5.8 mph - N/A   Mostly Cloudy
5:55 PM 75.2 °F 57.2 °F 53% 30.19 in 10.0 mi East 6.9 mph - N/A   Scattered Clouds
6:15 PM 75.2 °F 57.2 °F 53% 30.19 in 10.0 mi East 6.9 mph - N/A   Clear
6:38 PM 73.4 °F 59.0 °F 61% 30.18 in 10.0 mi East 5.8 mph - N/A   Clear
6:56 PM 73.4 °F 59.0 °F 61% 30.19 in 10.0 mi East 4.6 mph - N/A   Clear
7:15 PM 71.6 °F 59.0 °F 64% 30.19 in 10.0 mi East 8.1 mph - N/A   Clear
7:35 PM 71.6 °F 59.0 °F 64% 30.19 in 10.0 mi East 3.5 mph - N/A   Clear
7:59 PM 69.8 °F 59.0 °F 68% 30.19 in 10.0 mi East 3.5 mph - N/A   Clear
8:17 PM 68.0 °F 59.0 °F 73% 30.19 in 10.0 mi Calm Calm - N/A   Clear
8:35 PM 66.2 °F 59.0 °F 78% 30.19 in 10.0 mi East 3.5 mph - N/A   Scattered Clouds
8:55 PM 66.2 °F 59.0 °F 78% 30.20 in 10.0 mi East 3.5 mph - N/A   Scattered Clouds
9:15 PM 66.2 °F 59.0 °F 78% 30.21 in 10.0 mi East 3.5 mph - N/A   Mostly Cloudy
9:38 PM 64.4 °F 59.0 °F 83% 30.21 in 10.0 mi East 3.5 mph - N/A   Scattered Clouds
9:56 PM 64.4 °F 59.0 °F 83% 30.21 in 10.0 mi East 4.6 mph - N/A   Scattered Clouds
10:15 PM 64.4 °F 57.2 °F 77% 30.21 in 10.0 mi East 4.6 mph - N/A   Clear
10:35 PM 64.4 °F 57.2 °F 77% 30.21 in 10.0 mi East 4.6 mph - N/A   Clear
10:59 PM 62.6 °F 57.2 °F 82% 30.21 in 10.0 mi East 3.5 mph - N/A   Clear
11:17 PM 62.6 °F 57.2 °F 82% 30.21 in 10.0 mi Calm Calm - N/A   Clear
11:35 PM 62.6 °F 57.2 °F 82% 30.21 in 10.0 mi Calm Calm - N/A   Clear
11:55 PM 62.6 °F 57.2 °F 82% 30.21 in 10.0 mi East 3.5 mph - N/A   Clear